ANA7086 KLAS-KLAX

Flight info

Callsign ANA7086
Flight time N/A
Altitude 28000
Route RADYR2 BLAQQ SHTNR ANJLL4
Aircraft A320/M-SDE3FGHIRWY/LB1

Departure

Time N/A
Airport Harry Reid International Airport (KLAS)

Arrival

Time 2026-04-26 02:25
Airport Los Angeles International Airport (KLAX)
Time Latitude Longitude Altitude Speed Heading
2026-04-26 02:01 34.62154 -116.21819 27755 ft 350 kts 226°
2026-04-26 02:01 34.60439 -116.23991 27753 ft 350 kts 226°
2026-04-26 02:01 34.58749 -116.26133 27770 ft 350 kts 225°
2026-04-26 02:02 34.57073 -116.28259 27771 ft 350 kts 226°
2026-04-26 02:02 34.55371 -116.30419 27837 ft 357 kts 226°
2026-04-26 02:02 34.53647 -116.32603 27978 ft 364 kts 226°
2026-04-26 02:02 34.51871 -116.34853 28203 ft 369 kts 226°
2026-04-26 02:03 34.50096 -116.37099 28660 ft 367 kts 226°
2026-04-26 02:03 34.48349 -116.39304 29351 ft 362 kts 226°
2026-04-26 02:03 34.46631 -116.41471 29685 ft 360 kts 226°
2026-04-26 02:04 34.43157 -116.45851 29769 ft 356 kts 226°
2026-04-26 02:04 34.40387 -116.50856 29788 ft 372 kts 240°
2026-04-26 02:05 34.38039 -116.56574 29777 ft 380 kts 240°
2026-04-26 02:05 34.35661 -116.62336 29788 ft 385 kts 241°
2026-04-26 02:06 34.33277 -116.68105 29810 ft 385 kts 241°
2026-04-26 02:06 34.30913 -116.73924 29811 ft 385 kts 242°
2026-04-26 02:07 34.28577 -116.79785 29846 ft 387 kts 242°
2026-04-26 02:07 34.26240 -116.85639 29849 ft 386 kts 242°
2026-04-26 02:07 34.25072 -116.88543 29903 ft 374 kts 242°
2026-04-26 02:08 34.23964 -116.91293 29339 ft 357 kts 242°
2026-04-26 02:08 34.22888 -116.93949 28446 ft 349 kts 241°
2026-04-26 02:08 34.21830 -116.96551 27522 ft 343 kts 241°
2026-04-26 02:08 34.20878 -116.99186 26618 ft 340 kts 248°
2026-04-26 02:09 34.20153 -117.01881 25728 ft 336 kts 248°
2026-04-26 02:09 34.19433 -117.04547 24834 ft 332 kts 248°
2026-04-26 02:09 34.18719 -117.07185 24030 ft 328 kts 248°
2026-04-26 02:09 34.18020 -117.09764 23191 ft 325 kts 248°
2026-04-26 02:10 34.17317 -117.12353 22285 ft 322 kts 248°
2026-04-26 02:10 34.16625 -117.14901 21438 ft 319 kts 249°
2026-04-26 02:10 34.15935 -117.17432 20630 ft 316 kts 249°
2026-04-26 02:10 34.15237 -117.19967 19891 ft 313 kts 249°
2026-04-26 02:11 34.14559 -117.22421 19130 ft 311 kts 249°
2026-04-26 02:11 34.13878 -117.24897 18355 ft 310 kts 249°
2026-04-26 02:11 34.13202 -117.27363 17486 ft 308 kts 249°
2026-04-26 02:11 34.12531 -117.29804 17114 ft 307 kts 250°
2026-04-26 02:12 34.11855 -117.32249 16770 ft 308 kts 250°
2026-04-26 02:12 34.11177 -117.34699 16358 ft 305 kts 250°
2026-04-26 02:12 34.10509 -117.37117 15936 ft 303 kts 250°
2026-04-26 02:12 34.09867 -117.39537 15523 ft 302 kts 251°
2026-04-26 02:13 34.09260 -117.41941 15117 ft 300 kts 252°
2026-04-26 02:13 34.08665 -117.44356 14724 ft 299 kts 252°
2026-04-26 02:13 34.08079 -117.46745 14375 ft 296 kts 252°
2026-04-26 02:13 34.07496 -117.49114 14005 ft 294 kts 253°
2026-04-26 02:14 34.06906 -117.51491 13598 ft 294 kts 253°
2026-04-26 02:14 34.06316 -117.53826 13166 ft 293 kts 253°
2026-04-26 02:14 34.05716 -117.56175 12720 ft 292 kts 252°
2026-04-26 02:14 34.05119 -117.58506 12283 ft 291 kts 252°
2026-04-26 02:15 34.04524 -117.60832 11861 ft 290 kts 252°
2026-04-26 02:15 34.03943 -117.63087 11476 ft 289 kts 252°
2026-04-26 02:15 34.03329 -117.65463 11057 ft 288 kts 252°
2026-04-26 02:15 34.02740 -117.67749 10658 ft 287 kts 251°
2026-04-26 02:16 34.02205 -117.70034 10303 ft 285 kts 258°
2026-04-26 02:16 34.01969 -117.72370 10126 ft 277 kts 261°
2026-04-26 02:16 34.01756 -117.74617 9965 ft 268 kts 261°
2026-04-26 02:16 34.01541 -117.76835 9637 ft 265 kts 261°
2026-04-26 02:17 34.01324 -117.79044 9246 ft 264 kts 261°
2026-04-26 02:17 34.01105 -117.81244 8867 ft 263 kts 261°
2026-04-26 02:17 34.00889 -117.83416 8483 ft 262 kts 261°
2026-04-26 02:17 34.00672 -117.85601 8105 ft 261 kts 261°
2026-04-26 02:18 34.00460 -117.87770 7706 ft 260 kts 262°
2026-04-26 02:18 34.00250 -117.89928 7325 ft 259 kts 262°
2026-04-26 02:18 34.00041 -117.92075 6905 ft 259 kts 262°
2026-04-26 02:18 33.99830 -117.94232 6509 ft 258 kts 262°
2026-04-26 02:19 33.99617 -117.96385 6086 ft 258 kts 262°
2026-04-26 02:19 33.99406 -117.98522 5623 ft 259 kts 262°
2026-04-26 02:19 33.99194 -118.00659 5228 ft 258 kts 262°
2026-04-26 02:19 33.98979 -118.02817 4982 ft 256 kts 262°
2026-04-26 02:20 33.98766 -118.04934 4987 ft 258 kts 262°
2026-04-26 02:20 33.98549 -118.07101 4988 ft 258 kts 262°
2026-04-26 02:20 33.98330 -118.09248 4983 ft 258 kts 262°
2026-04-26 02:20 33.98113 -118.11399 4825 ft 258 kts 262°
2026-04-26 02:21 33.97905 -118.13494 4526 ft 256 kts 262°
2026-04-26 02:21 33.97691 -118.15632 4189 ft 255 kts 262°
2026-04-26 02:21 33.97479 -118.17754 3851 ft 253 kts 262°
2026-04-26 02:21 33.97270 -118.19833 3512 ft 251 kts 262°
2026-04-26 02:22 33.97059 -118.21941 3179 ft 251 kts 262°
2026-04-26 02:22 33.96850 -118.24015 2839 ft 249 kts 263°
2026-04-26 02:22 33.96642 -118.26081 2498 ft 247 kts 262°
2026-04-26 02:22 33.96435 -118.28130 2168 ft 248 kts 262°
2026-04-26 02:23 33.96229 -118.30165 1833 ft 238 kts 263°
2026-04-26 02:23 33.96040 -118.32038 1516 ft 214 kts 263°
2026-04-26 02:23 33.95868 -118.33731 1245 ft 196 kts 263°
2026-04-26 02:23 33.95706 -118.35323 989 ft 187 kts 263°
2026-04-26 02:24 33.95554 -118.36818 747 ft 168 kts 262°
2026-04-26 02:24 33.95421 -118.38126 525 ft 150 kts 262°
2026-04-26 02:24 33.95305 -118.39317 290 ft 139 kts 263°
2026-04-26 02:24 33.95185 -118.40434 157 ft 131 kts 262°
2026-04-26 02:25 33.95094 -118.41367 124 ft 83 kts 262°
2026-04-26 02:25 33.95056 -118.41692 124 ft 1 kts 260°
2026-04-26 02:25 33.95037 -118.41735 125 ft 28 kts 244°
2026-04-26 02:25 33.94982 -118.41849 122 ft 0 kts 205°
2026-04-26 02:26 33.94958 -118.41895 120 ft 10 kts 237°
2026-04-26 02:26 33.94915 -118.41966 122 ft 12 kts 234°
2026-04-26 02:26 33.94909 -118.41976 126 ft 0 kts 234°
2026-04-26 02:27 33.94932 -118.41937 124 ft 13 kts 234°